{"data":{"norad_id":58098,"epoch":"2026-05-24T18:55:23.124576Z","epoch_age_seconds":96515,"freshness":"FRESH","line1":"1 58098U 23161B   26144.78846209  .00000252  00000+0  20631-4 0  9998","line2":"2 58098  53.1589 171.9930 0001141  92.1170 267.9961 15.30190464146071","mean_motion":15.30190464,"eccentricity":0.0001141,"inclination_deg":53.1589,"raan_deg":171.993,"arg_perigee_deg":92.117,"mean_anomaly_deg":267.9961,"bstar":2.0631e-5,"rev_number":14607,"period_min":94.105932161919,"perigee_km":474.46157162443,"apogee_km":476.0255130642,"semimajor_km":6853.3805423443,"source":"CELESTRAK","updated_at":"2026-05-25T13:38:18.526009Z"}}